RH
3 3 4 4 4 5 5 5 5 5 6 5 5 5 4 4 4 4 4 3 3 4 4 4 4 4 4 4 4 5 5 5 5 5 5 5 5 6 5 5 5 5 5 5 5 5 5 5 5 5 5 5 5 6 6 6 7 7 8 8 8 7 6 6 7 7 8 8 7 8 8 9 9 9 10 10 11 13 15 17 17 16 14 13 13 13 13 13
4 4 4 4 4 4 4 4 5 5 5 5 5 5 5 5 4 4 4 3 4 4 4 4 4 4 4 5 5 5 5 5 5 5 6 6 6 6 6 7 6 5 5 5 6 5 6 5 5 5 5 6 5 6 6 7 7 7 7 7 7 7 7 7 7 8 8 8 8 8 9 9 10 10 10 10 11 12 13 14 14 14 13 13 14 13 13 13
7 7 7 7 7 6 5 6 6 5 4 4 4 5 5 5 5 5 5 4 4 4 4 4 3 4 4 4 4 4 5 5 5 5 6 7 7 6 6 7 6 6 6 5 6 6 6 6 6 6 6 6 6 7 7 7 7 7 8 7 7 7 7 8 8 8 8 8 9 9 10 11 11 11 11 11 11 12 13 14 14 14 14 14 14 13 13 13
20 19 19 19 19 18 17 18 17 15 12 10 8 7 7 6 6 5 5 4 4 4 4 4 4 4 4 4 4 5 5 5 6 6 6 6 6 6 6 6 6 6 6 6 6 6 6 6 6 7 6 7 7 7 7 7 8 8 8 8 8 8 8 8 8 9 9 9 10 11 11 11 12 12 12 12 12 13 14 14 14 15 15 14 14 14 14 14
31 30 30 29 29 28 27 28 27 26 25 22 19 18 17 16 15 12 10 8 6 5 4 5 4 4 4 5 5 4 5 6 6 6 6 6 5 6 6 6 6 6 7 7 7 7 7 7 7 7 7 8 8 8 8 8 9 9 8 9 9 9 9 9 10 10 10 11 11 11 11 12 12 12 12 12 13 13 12 12 13 15 15 15 15 16 16 16
30 29 30 29 29 29 29 29 28 28 27 27 26 26 26 24 24 22 20 19 14 9 7 6 5 5 5 5 5 5 6 6 6 6 6 6 6 6 6 6 7 7 7 7 8 8 8 8 8 8 9 9 9 9 10 10 10 10 10 10 10 10 11 11 11 11 11 11 11 11 11 11 12 12 13 12 13 12 11 11 13 14 15 16 17 18 18 18
25 24 24 24 24 24 24 24 24 24 24 24 25 25 26 26 27 26 25 25 23 19 14 11 9 7 6 5 6 6 6 6 6 6 6 7 7 7 7 7 7 7 8 9 9 9 9 10 10 10 10 10 10 10 11 11 11 11 11 11 11 11 11 11 11 11 11 11 11 11 11 11 12 13 13 12 12 11 11 12 13 14 16 17 18 19 19 19
28 28 27 27 26 25 25 25 24 25 24 23 23 23 25 26 28 28 27 27 26 25 21 19 16 12 10 9 7 6 7 6 6 6 6 7 7 7 7 7 8 8 9 9 9 10 10 10 11 11 11 11 11 11 11 11 11 11 11 11 11 11 11 11 11 11 11 11 11 11 11 11 12 12 13 12 12 12 12 13 14 15 17 19 20 20 20 20
35 34 34 33 32 32 31 32 32 32 31 31 30 28 29 30 32 33 32 30 28 27 25 24 21 17 16 13 11 10 9 9 8 6 6 6 7 7 7 8 8 8 9 9 10 10 10 11 11 11 11 12 12 12 12 12 12 11 11 11 10 10 10 10 10 10 11 11 11 11 11 11 11 13 13 12 12 13 14 16 17 18 19 20 21 22 22 21
38 37 37 36 36 36 36 38 38 38 38 38 38 37 37 37 37 36 35 33 31 29 27 26 23 20 18 14 13 12 12 13 10 6 6 5 6 6 7 8 8 9 9 10 10 11 11 11 12 12 12 12 11 12 11 11 11 10 10 10 9 9 9 10 10 10 11 11 11 11 12 12 13 14 15 15 15 16 18 19 19 20 21 22 23 24 24 23
39 39 38 38 37 37 40 41 40 38 39 39 40 39 38 37 35 33 32 31 30 29 27 25 23 21 18 15 15 13 14 14 8 6 6 5 6 6 7 7 8 9 9 10 10 11 11 11 12 11 11 10 10 10 9 9 9 9 9 9 9 10 10 10 10 11 12 12 13 13 14 15 15 17 18 17 18 19 19 19 19 20 21 23 25 26 26 25
42 42 40 38 37 39 41 39 34 31 31 31 32 32 30 28 27 26 26 26 25 23 23 22 20 18 16 16 14 12 12 10 6 6 6 6 7 6 7 7 8 9 9 10 10 10 11 11 11 10 9 10 9 8 9 9 9 9 9 10 10 10 11 11 12 13 14 14 15 15 17 19 18 19 20 20 20 19 19 19 19 20 22 24 26 27 27 27
43 45 42 37 35 39 39 35 31 29 28 28 29 28 26 22 19 19 20 20 20 18 17 16 14 13 14 14 12 11 10 8 7 7 7 7 7 8 8 8 8 9 9 9 10 10 10 9 9 10 9 9 9 9 10 10 10 11 10 11 11 12 13 14 15 16 15 16 17 17 20 25 23 22 23 21 21 21 22 23 23 23 24 26 27 28 29 29
45 46 43 36 31 35 36 34 33 32 30 30 29 29 26 19 14 14 13 13 14 13 12 12 11 11 12 11 10 10 10 9 10 9 8 8 8 9 9 9 10 10 10 10 10 10 10 10 10 10 9 10 10 10 10 11 12 11 11 12 12 15 18 16 16 17 17 18 18 18 21 27 25 23 24 23 25 27 27 27 26 26 26 28 30 30 31 32
45 42 41 38 33 33 34 34 34 33 31 29 28 28 24 15 13 15 13 11 11 10 9 9 10 10 10 10 11 12 13 13 12 11 11 11 10 10 10 10 10 10 10 10 10 10 9 9 9 10 10 10 10 11 12 11 12 11 13 17 15 16 18 16 16 18 18 19 20 20 24 28 26 24 27 27 29 30 29 29 28 28 28 30 31 32 33 34
44 40 38 38 37 35 34 33 33 32 30 27 26 24 17 10 11 14 13 12 12 11 10 10 10 10 10 12 14 13 13 13 12 11 11 11 11 11 11 10 10 9 9 8 9 9 9 10 10 11 11 11 11 11 11 12 14 12 13 18 17 15 18 18 18 18 18 20 21 22 27 29 26 24 27 28 29 29 29 30 29 29 30 31 32 33 34 34
34 30 28 29 32 33 32 31 30 28 25 23 20 16 11 9 9 9 9 9 10 10 11 12 12 11 11 13 13 11 10 10 10 10 10 10 10 10 10 9 9 9 9 9 10 10 10 11 11 12 11 11 11 10 12 17 20 18 16 17 17 16 18 19 20 20 20 22 22 23 27 29 26 24 26 27 28 28 29 30 31 33 33 33 34 35 36 38
14 12 12 13 16 18 19 20 20 18 16 15 14 12 10 9 8 8 7 7 8 9 12 13 13 13 13 12 12 11 11 11 11 11 11 11 11 11 11 11 11 11 11 11 11 11 11 11 11 11 10 10 11 11 15 21 22 21 19 19 20 20 19 21 23 23 22 23 23 24 26 27 26 26 27 27 28 29 30 31 33 34 34 35 35 37 39 41
8 6 6 6 8 9 10 10 11 11 11 11 11 10 10 9 8 7 7 7 9 11 14 15 14 15 15 14 13 13 13 13 12 12 11 12 13 13 14 14 14 13 12 12 11 11 11 11 11 11 11 12 13 14 17 20 20 21 21 21 22 22 22 24 25 24 24 25 26 26 28 28 28 28 27 28 29 30 31 32 33 34 34 36 37 40 42 44
13 9 8 8 8 8 9 9 9 9 9 9 10 10 9 8 8 7 6 7 10 14 16 16 16 17 17 17 16 15 14 12 11 10 11 12 13 13 14 14 13 12 11 11 10 10 10 11 11 13 16 16 17 18 18 20 20 21 22 23 23 24 26 26 26 26 26 28 29 28 29 29 29 29 29 29 31 32 34 35 36 36 37 39 41 44 47 49
15 11 10 10 10 10 11 10 9 8 7 7 7 8 7 7 6 5 6 9 14 17 16 16 17 17 19 18 15 13 11 10 9 9 10 11 11 11 12 11 11 10 10 9 10 11 11 12 15 18 18 18 18 19 19 20 21 22 23 24 26 27 27 26 27 27 27 30 32 30 31 32 31 32 33 34 36 36 37 38 38 39 40 42 45 49 52 54
17 13 12 13 14 16 16 16 14 10 7 6 5 5 5 5 4 4 6 12 17 17 15 15 15 15 17 15 11 10 9 9 11 11 11 11 10 10 10 10 10 10 10 10 11 12 12 15 18 19 19 19 19 19 21 23 22 23 24 26 30 30 28 29 28 27 28 31 32 33 33 34 34 35 37 38 39 39 40 41 42 43 45 47 50 54 57 59
23 19 18 19 20 22 21 21 20 17 12 9 7 5 4 4 4 5 9 15 16 14 13 13 11 12 13 10 9 8 8 11 11 10 11 10 10 10 10 10 10 11 12 12 12 13 15 18 19 19 20 21 22 23 23 22 23 24 26 29 31 29 29 33 32 28 28 29 31 35 39 41 40 39 39 39 41 43 45 47 49 49 51 53 56 59 61 63
29 25 25 24 25 26 24 23 21 21 19 15 12 8 6 5 6 8 12 15 14 12 12 11 9 11 10 8 9 8 9 12 11 11 12 11 11 11 12 12 12 14 14 14 15 16 17 19 20 21 23 24 25 24 22 22 25 26 28 29 31 30 29 32 30 26 27 31 34 37 41 49 48 41 41 43 45 48 51 54 55 55 56 58 61 64 66 68
30 30 29 27 29 29 29 27 22 21 22 20 16 12 8 7 9 11 13 15 14 12 11 10 9 11 10 10 11 10 13 14 13 14 14 14 14 13 14 14 14 15 15 16 18 17 17 20 23 25 26 26 25 23 23 24 24 26 29 29 30 30 28 28 27 27 32 37 38 38 39 47 51 46 45 47 49 54 58 60 61 60 60 62 65 69 72 74
30 32 31 28 30 31 33 32 25 22 24 23 19 14 11 9 11 13 15 16 13 11 11 10 11 12 12 13 13 13 15 15 15 17 16 15 15 14 16 15 15 17 17 16 17 19 22 26 28 27 25 24 23 23 24 24 26 31 31 28 28 28 27 28 28 30 36 37 37 40 40 42 52 54 48 49 53 58 63 64 65 65 65 67 70 75 79 82
28 31 32 29 30 32 34 33 28 26 27 25 20 15 11 9 12 15 16 16 12 11 13 12 14 16 14 16 15 14 16 17 17 17 16 16 15 15 16 16 17 19 17 16 18 24 29 31 29 25 23 23 23 25 27 27 30 33 30 27 27 27 27 29 29 30 34 38 38 42 44 42 49 55 51 53 59 62 67 69 69 71 71 72 77 82 86 89
25 30 32 29 30 32 33 33 30 29 27 23 17 12 9 9 13 14 15 17 14 13 15 15 16 18 18 18 16 16 17 17 17 16 16 17 16 17 18 17 19 20 17 16 21 30 33 31 27 24 23 25 27 30 30 28 30 31 30 29 29 28 28 28 29 30 31 36 40 41 44 41 43 53 53 57 67 69 71 75 76 78 78 79 84 89 93 95
23 29 31 28 29 31 32 31 29 27 22 16 11 8 7 9 12 12 13 16 14 14 16 17 18 19 19 18 15 17 18 17 17 17 18 18 17 18 18 18 20 20 19 17 21 30 34 31 25 23 26 28 31 31 29 29 31 33 32 30 27 25 27 29 30 33 33 36 42 43 45 43 42 55 62 65 75 75 73 79 83 85 87 89 93 96 98 100
23 29 30 27 27 30 31 29 27 23 15 10 8 6 7 9 10 11 15 15 13 16 19 18 18 18 18 17 15 17 18 18 18 19 21 20 19 20 19 19 20 20 21 20 22 29 34 31 25 25 29 29 29 28 29 33 34 34 31 26 25 25 27 31 31 33 32 35 42 43 45 47 45 57 67 68 74 75 75 84 90 92 96 98 99 100 100 100
26 30 29 26 27 29 29 27 24 18 10 7 6 6 7 9 8 12 18 16 14 17 19 18 17 16 16 17 16 17 18 18 18 19 19 20 19 19 18 19 19 20 21 21 24 30 34 31 27 30 31 26 26 29 30 34 34 32 25 20 27 31 30 31 33 34 31 31 40 42 45 49 47 55 64 65 71 76 80 87 92 98 100 100 101 100 100 100
31 30 28 25 27 27 26 25 20 12 6 6 5 6 7 8 10 15 18 18 16 17 18 18 17 17 18 18 17 18 19 19 19 19 19 20 20 19 20 21 21 23 24 22 23 27 31 31 31 33 31 27 28 29 30 33 31 25 21 24 31 34 36 36 34 35 33 32 40 46 48 47 47 55 61 64 72 78 83 89 94 100 101 100 101 100 100 100
29 28 27 25 25 24 24 22 13 6 4 4 5 6 6 8 14 20 20 19 19 18 19 19 18 19 20 19 18 19 20 20 21 22 22 23 22 22 24 25 24 25 27 24 21 24 29 31 30 31 32 33 33 32 34 35 33 27 29 39 41 40 47 47 40 41 40 38 44 49 48 45 50 61 63 62 69 75 82 91 96 101 100 100 101 100 100 100
24 25 24 23 23 23 20 14 6 4 4 4 5 6 7 12 18 22 21 20 19 18 20 20 20 21 20 19 20 20 21 22 23 24 23 22 22 23 24 24 25 24 25 26 24 27 33 33 33 35 37 37 37 37 36 33 36 33 28 40 52 52 53 50 45 47 47 47 51 49 46 49 58 68 67 65 71 74 81 91 98 100 100 100 100 100 100 100
22 21 20 20 20 17 11 6 4 5 5 5 7 7 10 17 20 21 21 20 19 18 20 20 21 21 20 20 20 21 22 23 24 24 23 23 25 27 25 26 27 25 26 29 29 31 37 38 39 43 43 40 41 40 32 28 34 30 23 36 53 56 56 54 48 51 57 57 53 50 53 60 65 68 69 72 78 83 88 95 99 100 100 100 100 100 99 98
16 17 19 17 14 9 5 5 6 6 6 8 8 8 14 19 20 20 20 20 20 20 20 21 20 20 19 20 20 21 23 23 23 24 24 26 30 31 30 30 30 29 29 31 31 32 36 38 37 42 45 40 41 42 31 25 28 31 37 43 47 52 57 56 51 52 57 53 45 47 55 62 64 69 79 83 84 87 89 92 96 99 101 100 98 96 92 88
15 17 15 10 6 6 7 8 8 7 8 9 8 11 16 19 19 20 21 21 22 21 20 20 21 20 19 19 19 21 24 23 23 25 26 29 34 34 33 33 33 33 32 31 34 34 36 40 36 36 41 40 42 44 32 21 21 35 49 38 32 47 53 53 55 52 51 48 42 46 55 59 61 71 87 89 82 82 83 85 90 93 94 94 92 89 86 82
15 12 8 6 7 8 8 8 8 8 10 9 9 14 18 19 20 21 22 22 22 21 19 19 21 21 20 20 19 20 22 23 24 25 27 31 36 37 35 36 35 34 33 32 35 34 32 38 36 30 36 42 42 39 35 28 18 27 38 22 21 46 53 55 62 57 57 57 48 48 56 62 68 78 89 88 83 86 88 90 92 91 91 92 90 90 87 85
8 7 7 8 9 9 8 8 9 9 10 9 11 16 19 20 21 21 21 21 20 19 18 19 20 20 20 21 21 20 22 25 25 26 29 32 36 37 34 36 36 33 33 32 33 33 27 31 35 28 30 40 38 34 42 41 20 14 19 10 17 43 51 55 62 59 59 57 53 55 54 61 75 80 85 90 93 95 94 95 96 95 96 97 96 97 94 91
6 7 9 9 9 9 8 9 10 10 9 11 15 19 20 20 19 18 18 18 18 18 18 18 18 19 20 21 21 21 23 28 27 27 31 33 35 38 34 34 34 31 31 30 31 33 26 24 31 27 26 37 40 38 43 44 27 17 18 15 25 44 51 54 59 63 63 55 58 63 52 57 74 77 83 96 99 99 99 101 100 98 100 101 100 100 100 97
8 9 10 10 9 9 9 10 12 11 11 15 18 19 19 18 17 16 15 16 16 17 17 16 17 18 20 21 22 22 24 29 29 28 32 33 35 39 35 31 30 28 27 26 26 28 24 18 21 26 33 42 46 41 37 39 33 24 25 29 39 55 62 58 53 62 72 64 62 63 55 58 67 70 85 97 92 92 92 87 87 90 96 99 100 101 100 98
10 9 9 9 9 10 11 12 13 13 15 17 17 17 17 15 15 15 14 14 16 17 17 16 17 18 19 21 22 22 24 30 30 28 32 35 36 37 34 29 27 25 22 20 19 20 18 11 12 26 34 37 45 42 34 36 33 23 20 26 40 56 60 55 46 53 72 73 69 71 70 71 72 71 81 88 81 79 78 77 83 91 97 101 100 97 96 98
9 9 9 9 10 11 13 13 15 16 16 16 16 16 15 13 14 14 14 14 15 17 17 16 17 19 19 21 22 21 24 29 30 29 32 36 37 36 31 27 25 21 16 15 15 16 15 9 10 21 26 30 44 42 32 34 30 21 19 26 48 63 53 45 49 61 73 74 75 78 73 72 76 74 77 81 78 75 79 88 94 98 101 98 90 90 95 95
8 8 10 11 12 14 14 14 16 16 14 14 14 14 14 13 13 14 14 14 15 16 18 17 18 20 20 21 22 22 24 28 30 30 33 36 37 34 29 24 22 17 11 10 12 13 13 9 9 17 23 28 36 37 38 40 30 22 23 29 52 67 50 40 58 78 80 78 86 84 63 58 74 81 81 79 74 79 91 100 102 102 98 89 88 93 92 82
8 10 12 13 15 15 13 14 16 15 14 13 12 12 14 13 12 13 14 14 14 16 18 18 19 20 21 21 22 23 24 26 28 31 33 36 37 34 28 21 17 13 7 6 8 9 8 6 7 15 21 21 22 27 36 39 29 23 23 29 50 61 43 33 55 76 74 76 93 87 63 63 80 87 88 81 75 83 94 97 97 94 90 89 93 90 77 72
9 11 13 14 16 14 12 14 15 14 13 13 12 12 13 13 13 13 13 14 14 16 18 19 18 20 20 20 22 23 25 26 28 31 33 35 36 34 28 19 12 8 6 4 5 7 7 5 5 10 16 18 19 22 25 24 24 24 23 31 52 57 39 32 52 68 67 76 93 87 79 88 88 84 92 91 84 88 90 85 81 82 88 91 84 75 72 79
10 12 13 13 14 14 13 14 15 14 13 12 11 12 13 13 13 13 13 15 15 16 18 19 18 19 19 20 21 23 25 27 29 30 32 33 33 31 26 17 8 5 5 4 4 6 6 6 5 6 10 13 15 17 16 15 20 24 24 34 54 55 40 39 52 62 73 86 86 78 89 101 90 84 93 89 82 82 79 76 78 81 85 79 71 74 82 85
10 11 11 11 12 13 14 15 15 15 13 11 11 12 12 13 13 13 14 15 15 16 18 19 18 18 19 20 22 23 25 27 29 30 30 30 29 25 22 17 8 3 4 4 4 5 6 5 5 6 8 11 15 16 16 17 19 21 24 37 55 56 47 48 51 56 78 95 85 80 95 98 86 85 86 77 71 71 69 74 80 76 72 71 75 82 83 78
9 10 11 10 10 12 14 16 16 15 13 11 11 12 12 12 13 13 13 15 16 17 18 19 19 19 20 21 23 25 25 26 29 28 28 29 25 18 15 14 7 3 4 4 3 5 7 6 5 6 8 11 16 18 18 19 18 19 24 35 51 56 52 53 54 60 83 98 95 96 98 85 78 81 75 66 67 71 75 77 73 69 71 78 83 82 75 64
8 9 11 11 10 11 13 16 17 15 12 11 12 12 12 12 12 14 14 14 16 17 17 19 19 19 22 23 23 26 26 26 29 27 26 28 22 13 10 9 6 4 4 4 4 5 6 7 6 6 8 11 17 19 19 18 16 18 24 34 48 56 55 57 62 71 88 97 98 99 90 78 80 78 68 67 76 82 81 72 67 74 84 88 86 77 62 43
7 7 10 12 10 11 13 14 16 15 11 12 13 12 13 13 13 14 14 14 16 17 17 19 20 20 22 23 24 26 26 27 29 26 24 25 22 14 8 5 5 5 3 4 5 4 5 7 6 7 9 11 16 19 16 14 18 23 25 31 44 53 53 57 63 71 87 96 94 88 81 78 79 70 66 77 85 81 72 68 74 83 89 90 81 61 39 24
7 6 9 10 9 12 14 13 13 14 12 13 14 13 14 14 13 14 14 15 16 17 18 19 21 22 23 24 25 26 25 27 29 27 19 16 20 18 11 6 4 4 4 4 5 5 6 7 7 10 12 12 14 15 14 17 25 26 21 24 36 42 44 54 64 72 87 94 87 78 76 75 73 71 75 78 73 68 68 73 82 85 84 78 58 35 23 18
Wind_Speed
13 13 13 13 13 13 12 12 12 11 11 11 10 9 9 8 7 6 5 5 4 3 3 2 2 2 1 2 2 2 2 2 2 3 4 5 5 5 5 6 6 7 7 7 6 6 7 7 7 7 8 8 8 8 9 10 10 11 14 16 19 19 19 18 17 18 18 20 21 20 20 21 21 20 20 20 20 19 20 20 20 21 22 23 23 24 23 23
13 13 13 14 14 13 13 12 12 12 12 11 11 10 9 9 8 8 7 6 5 4 3 3 2 2 2 2 3 3 3 3 4 5 5 5 6 6 7 7 7 8 8 8 7 8 8 8 9 9 9 9 10 10 10 11 11 13 15 18 19 19 18 18 18 19 20 20 21 21 21 21 22 21 21 21 20 20 20 20 20 21 22 23 23 23 22 22
14 14 14 14 14 14 14 14 13 13 13 12 11 10 10 9 9 8 8 7 6 5 5 4 4 4 4 4 4 5 5 5 6 6 5 6 6 7 7 8 8 8 8 8 8 8 9 9 10 10 10 11 11 11 12 13 13 14 16 18 20 18 18 19 19 20 20 21 21 22 22 22 22 22 21 21 20 19 18 18 19 20 22 22 22 22 21 21
15 14 14 14 14 14 14 14 14 14 14 13 13 12 11 11 10 9 8 8 7 6 6 5 5 5 5 5 6 6 6 7 7 6 6 7 8 8 8 8 8 8 9 8 8 8 9 9 10 10 11 12 12 13 13 13 14 16 17 18 19 18 19 19 19 20 21 21 22 22 23 23 22 22 21 21 20 19 19 19 20 21 21 22 21 21 21 22
12 12 12 12 12 12 12 13 13 13 13 13 13 12 12 12 11 11 10 9 8 7 6 6 6 5 5 6 6 7 8 7 7 6 7 8 9 9 9 9 9 9 9 9 9 9 10 10 11 11 12 13 13 13 14 14 15 16 17 17 18 18 19 20 20 21 21 22 22 23 23 23 23 22 21 21 20 21 22 22 22 21 21 22 21 20 20 21
9 9 10 10 10 10 10 10 10 10 10 10 10 10 10 10 10 11 10 11 10 9 8 7 6 6 6 6 7 8 8 8 8 8 8 9 9 9 10 10 9 9 9 9 9 10 10 11 12 12 13 13 13 14 14 14 15 16 17 17 17 18 19 20 20 21 21 22 22 23 23 23 24 23 21 21 22 24 25 24 24 23 22 23 22 21 21 22
8 8 8 8 8 8 8 9 9 9 9 9 9 8 8 9 9 10 10 10 10 10 10 10 9 8 7 7 8 8 9 9 10 9 9 10 10 10 10 11 10 9 9 9 10 11 11 12 13 14 14 14 14 14 14 15 15 16 17 17 17 17 18 19 20 20 21 22 23 23 24 25 25 24 23 24 25 25 26 25 25 24 24 24 23 22 23 24
7 7 7 7 7 8 8 8 9 9 9 9 9 9 9 10 10 10 10 10 9 9 10 10 10 9 9 9 9 9 10 10 10 10 10 10 11 11 11 11 11 10 10 10 11 11 12 13 14 14 14 14 15 14 14 15 15 16 16 16 17 17 18 19 20 21 22 23 24 24 25 25 25 26 26 27 27 26 26 25 24 23 23 23 23 23 24 25
7 7 7 8 8 8 8 8 9 9 9 10 10 10 11 11 11 12 11 11 11 10 10 10 11 10 10 10 10 10 11 11 11 11 11 11 11 12 13 13 12 12 11 11 12 12 13 13 14 14 14 15 15 15 15 15 15 16 16 17 18 18 19 20 21 22 23 24 25 26 26 26 26 26 27 28 26 25 25 24 23 22 21 22 23 24 23 23
8 8 8 9 9 9 10 10 10 10 10 10 10 11 11 11 12 12 12 13 13 12 12 12 12 12 11 10 10 11 12 12 12 12 12 12 12 12 13 13 13 13 12 12 12 13 13 13 14 14 15 15 14 15 15 16 17 17 18 18 19 20 21 22 22 23 24 25 25 25 24 24 24 24 26 26 25 24 23 22 23 22 23 23 23 22 21 21
9 9 9 10 10 10 10 10 10 10 10 10 10 10 10 11 11 12 12 13 13 13 13 13 13 13 12 11 11 12 12 12 12 13 13 13 13 12 13 13 13 14 13 13 13 13 13 13 14 14 14 14 14 16 17 17 18 18 19 20 21 22 23 24 24 23 22 22 21 21 22 23 23 22 21 19 18 18 19 21 22 23 23 23 22 21 21 22
9 9 9 9 9 9 8 8 8 8 8 8 8 8 9 10 11 11 12 12 12 12 12 13 13 13 13 12 12 12 12 12 12 12 13 13 13 13 13 13 14 14 14 14 14 13 13 13 14 14 14 15 17 18 18 18 19 20 21 22 23 23 24 24 21 18 17 18 19 21 20 19 18 15 14 15 16 17 18 19 21 22 23 22 22 22 22 23
8 8 7 7 7 7 6 6 6 6 7 7 8 8 9 11 12 12 12 12 12 12 12 12 12 12 12 12 12 12 12 12 12 12 12 13 13 12 12 13 13 13 14 14 14 14 14 15 16 16 17 18 19 19 19 21 21 21 21 23 23 21 20 18 16 15 17 19 20 20 16 13 15 15 15 16 16 17 18 20 22 23 23 23 23 23 23 24
7 7 6 6 5 5 5 5 6 6 7 8 9 10 12 13 13 11 11 11 11 11 11 11 11 12 11 12 12 12 12 11 12 12 12 12 12 12 11 12 13 13 13 14 14 15 15 16 17 18 18 18 19 20 21 21 20 21 21 21 20 15 13 16 17 18 20 19 19 20 15 11 15 16 14 14 16 20 23 24 24 24 23 23 23 23 23 24
6 6 6 6 5 5 5 5 7 8 9 9 11 12 13 13 12 10 10 9 10 10 10 10 10 10 11 11 11 11 12 11 11 12 12 13 13 12 12 12 13 13 14 14 15 15 16 17 17 18 17 18 19 19 20 21 21 21 17 15 17 16 16 20 20 19 20 19 20 20 13 11 15 17 17 19 22 25 26 26 26 25 25 24 24 25 25 26
7 7 7 6 6 6 7 7 9 10 10 11 12 13 13 12 10 9 9 10 10 10 10 10 10 10 10 9 9 10 12 12 12 12 12 12 12 13 13 13 13 14 15 15 15 16 16 16 16 16 16 17 18 19 20 20 17 18 15 14 19 21 22 22 20 19 20 19 19 18 15 16 22 24 24 25 25 26 26 27 28 29 29 29 30 30 30 30
8 8 7 7 7 7 8 9 10 11 11 11 12 12 11 11 9 9 10 10 10 10 10 9 10 10 8 8 9 10 11 11 12 12 12 12 12 12 13 13 13 14 15 15 15 15 15 15 14 14 16 17 17 19 18 14 11 16 18 19 22 23 22 22 21 20 19 18 19 18 18 21 24 25 24 24 23 24 25 26 27 28 29 30 31 32 33 33
8 7 7 7 7 7 8 9 10 10 10 11 11 11 11 10 10 10 11 11 10 10 9 8 9 8 6 8 9 9 10 11 11 12 11 11 11 11 12 12 12 12 13 13 13 13 14 14 14 14 15 16 16 16 14 12 14 17 19 21 22 23 23 21 20 20 19 19 18 16 17 19 21 22 23 23 24 25 26 27 28 29 29 30 30 30 30 30
7 7 7 6 7 7 8 9 9 10 10 10 10 11 11 11 11 11 11 11 10 9 8 8 9 8 7 9 9 10 12 12 12 12 12 12 11 11 11 11 11 11 12 13 13 13 13 13 13 13 13 13 13 13 12 13 16 16 17 18 19 21 21 19 19 19 17 17 16 15 17 20 22 24 25 26 27 28 28 29 29 28 28 27 26 26 26 26
8 9 8 8 8 8 9 9 9 10 10 10 11 10 9 9 10 12 11 10 9 9 9 10 11 10 9 9 10 12 13 13 14 12 11 11 11 11 11 11 12 12 13 13 13 13 13 12 11 10 11 12 12 12 13 14 15 16 16 16 17 18 18 17 16 15 16 17 18 19 22 25 27 27 27 28 28 28 28 27 25 24 23 22 22 21 22 22
9 9 9 9 9 9 10 10 10 10 10 10 10 9 9 8 9 11 10 8 8 9 10 11 11 11 9 10 12 14 14 14 14 14 13 12 12 11 11 11 11 12 12 12 12 11 10 9 8 8 9 11 12 13 14 14 14 14 15 16 15 16 18 17 15 16 19 19 21 23 25 27 27 26 26 26 25 24 23 22 21 20 19 19 19 18 19 19
10 10 10 10 10 10 10 11 12 12 12 11 10 9 9 8 8 9 7 6 7 9 11 11 12 12 11 12 14 14 14 13 11 12 12 11 12 11 11 11 11 11 11 11 10 8 7 7 8 9 11 12 13 13 13 12 13 14 15 15 14 16 19 17 18 21 21 21 22 23 23 25 26 25 24 21 20 20 19 19 19 18 17 16 16 16 17 17
11 11 11 11 10 10 10 12 13 14 14 13 11 10 9 9 8 7 5 5 7 10 11 12 13 12 12 13 13 13 13 10 9 11 10 11 11 11 11 10 10 10 9 10 8 6 7 10 11 12 12 12 12 11 12 12 14 14 14 13 14 18 19 18 22 25 25 24 21 16 18 23 23 20 18 18 18 19 18 17 16 15 14 14 14 15 15 16
11 11 11 11 11 10 9 10 11 12 13 13 13 12 11 10 8 7 3 4 9 12 11 13 14 12 13 13 13 14 12 9 11 12 11 12 11 10 9 9 9 9 9 9 7 8 11 12 12 12 10 10 10 11 13 14 14 14 13 13 16 19 19 21 26 29 27 21 15 15 15 14 13 15 17 18 19 17 16 15 14 13 12 13 14 14 15 15
9 10 10 11 12 11 10 10 9 10 11 12 13 13 12 10 8 7 2 3 8 12 12 14 14 13 14 14 14 14 10 10 13 13 13 13 11 11 11 10 10 10 10 9 7 9 13 11 10 10 10 11 12 13 15 16 17 15 14 16 18 21 23 25 26 26 20 10 12 18 9 5 7 15 17 18 18 16 14 13 12 12 12 13 14 14 15 15
8 8 10 11 13 14 12 10 8 8 10 12 13 13 12 10 8 7 2 4 6 13 14 16 15 14 15 14 15 13 8 12 14 13 14 13 12 13 12 12 11 9 9 9 7 10 12 11 10 11 13 13 13 15 16 19 18 14 16 20 21 23 24 22 21 20 14 8 13 14 4 4 8 13 15 15 16 15 13 13 12 11 12 13 14 15 15 15
7 7 10 12 13 14 13 10 7 8 11 11 12 12 11 9 7 5 2 3 6 14 16 17 16 15 16 15 16 13 10 13 13 11 13 12 13 14 12 13 10 8 10 10 9 9 11 11 11 14 15 14 15 17 18 21 18 15 20 22 21 22 21 19 18 16 13 10 10 10 8 7 6 8 14 13 13 13 12 13 12 12 13 14 15 15 16 16
7 7 9 11 12 13 12 10 8 9 11 12 12 12 10 8 6 4 2 2 6 13 14 16 14 14 16 15 15 13 12 12 11 12 13 12 13 14 12 12 9 8 12 12 10 10 9 10 13 16 16 16 19 18 19 21 19 18 21 21 20 20 18 15 13 13 12 7 5 12 13 8 5 7 13 13 12 13 13 13 13 12 13 14 15 16 17 18
6 7 9 11 11 11 11 10 10 11 12 13 12 11 9 7 6 3 4 2 6 11 12 12 12 11 13 13 13 13 11 12 13 15 16 12 14 14 11 12 10 11 16 15 12 10 8 11 16 16 16 19 19 18 19 19 19 19 19 21 20 17 14 11 12 13 10 4 4 12 14 8 6 5 9 11 10 13 15 14 14 14 14 15 16 17 18 19
6 7 9 10 11 11 10 11 12 12 13 13 12 10 8 6 5 3 3 3 7 9 9 10 11 11 11 11 12 12 10 12 13 15 14 12 14 13 8 10 10 10 16 16 12 10 8 12 17 16 16 19 19 18 18 16 18 18 20 23 18 16 14 9 13 14 5 3 5 11 14 11 5 2 6 9 9 14 16 14 14 15 16 17 18 19 19 19
6 7 9 10 10 10 11 12 14 13 14 13 11 9 6 5 6 5 3 4 7 8 8 9 11 11 11 12 13 12 11 12 12 13 12 10 12 11 7 12 13 10 15 19 14 9 6 11 17 15 15 20 19 18 17 15 18 19 24 26 16 12 11 6 11 11 4 4 5 11 21 16 5 2 8 13 14 16 16 15 15 16 18 19 20 21 20 20
7 8 9 9 10 11 12 13 14 14 14 12 9 7 3 4 9 8 4 4 5 7 8 9 11 13 13 13 14 14 12 13 14 16 17 16 17 18 17 21 21 14 14 19 17 9 6 13 20 16 18 22 20 19 18 16 20 23 27 28 16 8 7 5 7 6 4 4 5 17 24 12 3 6 13 18 19 18 17 17 17 17 19 21 22 22 21 19
8 8 8 9 10 11 12 14 15 14 12 10 7 6 4 5 7 8 7 6 6 8 7 9 13 13 14 14 14 15 13 14 15 16 18 18 18 21 21 22 22 16 13 16 18 14 8 12 20 20 21 23 20 20 21 18 22 26 27 24 13 5 5 4 4 4 5 5 11 20 15 4 5 12 16 21 22 21 20 18 18 19 21 23 23 22 21 18
5 6 8 9 11 12 13 14 14 12 10 8 6 5 6 8 7 6 8 9 8 10 7 8 12 13 13 15 16 15 14 14 15 15 16 17 17 20 21 21 21 18 16 14 16 16 8 7 17 20 19 19 16 19 20 18 19 23 25 20 12 6 4 4 5 6 7 11 15 12 5 4 9 13 18 20 20 20 21 20 20 21 22 23 23 21 19 19
5 7 8 10 11 12 13 12 11 10 9 8 6 6 10 10 7 7 9 9 9 12 9 6 10 11 12 15 16 16 14 14 15 14 16 18 19 21 22 21 20 19 18 14 12 13 8 6 12 15 15 14 11 14 20 19 16 19 24 21 13 7 4 6 8 8 11 13 8 2 2 7 11 15 17 16 17 20 22 22 22 22 23 22 21 20 21 24
7 8 8 9 11 11 11 10 9 8 9 7 5 11 15 11 8 8 9 9 10 13 11 7 9 12 13 15 17 16 13 14 14 14 17 18 17 20 21 20 19 19 19 15 12 11 7 6 11 13 11 11 9 12 20 21 17 17 21 20 13 6 5 7 7 8 10 7 3 3 6 8 12 15 13 14 19 21 20 21 22 22 23 23 23 24 27 32
7 8 9 10 10 9 9 9 8 7 9 5 5 14 17 12 11 11 10 10 11 13 13 10 11 15 16 16 17 16 12 13 14 14 17 16 14 18 19 17 17 17 16 15 13 11 6 4 10 13 8 8 9 10 17 22 22 18 17 18 13 4 5 8 5 6 6 4 6 8 8 9 10 9 10 16 18 18 20 20 19 20 22 24 26 29 32 37
8 8 9 9 8 9 10 9 8 9 8 5 10 17 16 12 12 11 11 12 12 13 14 14 14 15 16 16 17 16 13 13 15 14 15 15 12 15 16 15 15 15 15 14 12 11 9 4 7 12 7 4 6 9 15 21 24 20 15 18 15 4 3 8 5 4 4 5 6 8 9 9 8 7 12 18 17 19 24 23 21 23 24 27 30 32 36 39
7 7 8 8 9 9 9 10 12 10 5 6 14 17 14 13 13 12 12 12 13 13 14 15 15 14 15 15 16 16 13 13 15 15 14 13 11 12 14 13 13 13 14 14 12 11 12 7 5 10 8 2 4 11 16 18 23 22 18 20 18 8 5 7 4 2 4 5 5 8 11 7 7 12 17 17 18 24 27 26 26 28 28 30 33 35 38 40
6 7 8 9 9 8 10 12 12 7 6 12 17 16 14 14 13 13 13 13 13 14 14 15 15 15 15 15 15 16 13 11 14 14 13 13 11 10 12 12 12 13 13 14 13 11 13 12 8 9 10 5 5 12 14 15 21 24 21 22 20 13 8 6 3 2 3 5 4 8 9 6 11 19 20 18 22 26 28 29 30 31 32 34 36 38 40 42
7 8 10 10 8 9 12 13 10 8 12 17 17 15 14 14 14 14 14 14 14 14 14 15 15 15 16 15 16 16 12 10 13 14 13 12 10 9 11 12 12 13 13 14 14 11 12 15 12 9 10 6 3 9 13 14 18 22 20 20 18 14 9 5 2 2 3 5 7 8 9 11 18 22 20 21 26 30 33 35 36 38 38 38 39 42 44 46
9 9 11 10 10 12 11 10 11 13 16 17 15 15 14 14 15 15 15 14 14 14 14 15 15 15 15 15 15 15 12 9 11 13 11 10 10 9 10 13 13 13 14 14 14 12 12 15 14 8 6 6 3 6 12 13 17 20 17 16 15 11 9 6 4 5 7 8 10 11 10 13 18 19 19 24 30 34 37 38 39 40 39 40 42 44 45 47
10 11 12 11 13 13 10 11 14 14 15 16 15 15 14 14 15 15 15 15 14 14 14 14 15 15 15 15 15 14 12 8 9 11 10 8 9 9 10 12 13 14 15 15 14 13 12 15 16 7 3 5 4 7 12 14 18 21 17 16 13 8 10 10 6 8 9 8 8 8 7 9 14 20 24 29 34 37 38 38 38 39 40 42 44 44 46 49
10 12 13 12 14 11 8 12 15 14 15 15 14 15 15 15 15 15 15 15 15 14 13 15 15 15 16 15 14 14 11 8 8 10 8 7 7 9 11 12 14 15 16 15 14 13 12 14 15 7 2 3 4 6 10 13 19 21 18 18 13 9 13 14 7 6 7 7 4 5 8 11 16 24 31 35 38 39 37 37 37 39 42 44 45 47 49 51
10 13 14 14 14 9 8 14 15 14 15 14 14 16 15 15 15 15 15 15 15 15 14 15 16 15 16 15 14 13 12 9 8 8 7 6 6 8 11 12 14 14 15 16 15 13 13 15 14 8 2 2 3 5 9 15 21 21 18 17 13 10 13 15 9 5 6 7 7 9 15 20 22 26 32 37 39 39 37 38 39 41 44 45 47 50 51 50
10 12 13 14 13 11 12 16 16 14 14 13 15 17 16 15 15 15 15 16 16 15 14 15 15 15 15 15 14 13 12 10 9 8 7 6 6 8 9 11 13 15 15 16 16 14 13 14 14 9 4 4 6 9 13 17 20 20 19 16 11 10 13 16 11 7 9 12 14 14 15 23 29 29 30 34 38 38 38 40 42 43 45 48 49 50 49 49
11 12 11 10 11 12 14 16 15 14 14 13 16 17 17 16 15 15 16 16 15 15 14 14 15 15 15 15 14 12 11 10 8 8 7 7 7 7 8 10 13 15 15 16 16 14 12 12 13 11 8 7 8 12 16 18 19 19 17 14 11 11 14 16 13 12 13 12 14 14 15 24 33 33 32 36 39 38 39 41 43 46 48 49 49 48 48 47
12 13 12 11 11 12 13 15 15 15 14 14 16 17 17 16 15 16 16 16 15 15 15 14 15 15 15 15 13 12 10 9 7 7 6 6 7 7 7 9 12 15 16 15 15 14 13 13 13 13 10 7 9 14 17 19 21 18 15 13 13 12 15 16 17 18 16 13 17 24 26 31 36 35 36 40 39 39 41 43 45 48 48 48 48 47 45 43
13 13 13 13 13 13 14 15 15 14 14 15 16 17 17 17 16 16 16 16 16 15 15 15 16 16 15 14 13 11 10 8 6 5 5 5 6 7 8 7 9 14 15 14 15 15 15 15 15 16 12 7 10 16 19 23 23 17 13 13 14 15 17 19 20 21 18 18 23 30 34 38 38 37 38 39 39 41 44 46 48 48 48 47 46 44 41 38
13 14 13 12 13 15 15 15 14 13 13 15 16 17 17 17 17 16 16 17 16 16 16 16 16 16 15 15 13 12 10 8 5 5 5 4 5 7 8 8 9 12 14 15 16 16 18 17 17 19 16 10 12 18 22 25 21 14 13 14 16 18 20 20 21 21 19 22 27 32 37 39 36 36 39 38 40 44 47 48 48 47 47 47 44 41 37 35
14 15 15 12 13 16 16 14 13 12 13 15 16 17 17 17 18 17 17 17 16 16 16 16 16 16 15 15 14 12 11 8 5 6 6 4 3 6 8 10 10 11 14 17 17 18 19 19 20 22 18 14 16 21 25 25 17 12 12 14 16 19 21 22 23 23 22 26 31 34 38 37 35 37 40 42 45 48 48 48 48 47 47 45 41 38 36 35
14 16 17 14 13 15 15 14 13 12 13 15 16 17 18 18 18 18 18 17 17 17 16 15 15 15 15 15 13 12 11 8 6 6 7 6 4 4 8 11 12 12 15 17 19 20 20 20 22 21 18 18 19 23 27 22 11 8 13 17 18 20 23 25 26 25 25 27 32 37 39 37 35 39 44 47 48 48 47 47 48 47 44 41 38 36 36 37
Wind_Direction
73 71 70 69 68 67 66 65 66 66 64 63 61 60 59 56 57 57 55 54 56 57 59 59 49 43 29 4 347 343 333 318 312 319 316 314 315 311 302 296 292 288 284 279 276 275 273 271 270 267 265 265 264 265 266 265 265 264 262 263 265 273 280 286 290 289 288 289 292 294 294 296 296 294 291 289 289 287 285 284 285 287 285 283 281 281 283 285
70 69 67 67 65 62 61 61 61 61 60 58 55 54 50 47 46 44 41 36 31 26 23 15 1 355 344 325 318 315 314 311 311 314 310 309 311 307 302 296 293 289 284 281 280 281 280 279 278 275 272 271 270 269 269 269 268 267 268 269 272 279 284 286 287 286 288 289 291 293 293 295 296 295 294 292 292 290 289 291 290 287 283 280 281 283 285 286
73 71 68 66 64 62 60 59 58 57 56 54 52 50 45 43 42 40 38 31 23 12 3 354 344 340 331 321 316 312 314 316 313 311 304 303 309 308 304 297 292 289 285 281 281 282 282 282 280 278 277 275 274 273 271 272 273 271 272 275 279 284 286 286 286 287 288 289 290 292 293 295 295 295 295 293 292 293 295 295 290 285 281 280 283 285 286 288
77 74 71 68 65 63 60 56 55 53 51 50 48 45 41 39 37 37 35 32 26 12 0 348 338 334 328 321 319 313 314 316 313 312 304 299 305 307 302 296 292 291 290 287 285 285 283 280 280 279 278 276 276 274 273 274 275 274 274 277 282 286 286 286 287 288 288 289 291 293 295 296 296 296 294 293 295 295 293 289 285 282 280 281 281 282 286 289
74 71 70 66 63 60 56 52 49 47 45 42 40 37 34 30 29 27 25 26 24 16 6 352 340 334 326 319 317 315 315 315 312 311 305 300 303 304 301 296 293 293 294 293 291 291 289 287 284 281 279 278 278 276 276 276 276 277 277 279 283 286 288 289 290 290 291 292 293 294 296 297 296 294 293 294 295 291 288 286 285 281 279 277 276 280 286 288
63 59 56 53 51 47 43 41 38 37 34 32 30 27 23 18 15 14 13 14 13 10 5 357 347 338 330 321 318 316 312 312 311 308 304 302 302 301 299 296 294 294 294 295 297 297 296 294 290 286 283 280 279 278 279 279 278 279 281 284 287 290 291 292 292 292 293 294 295 297 298 298 295 292 293 293 290 288 288 288 286 281 276 272 274 278 283 285
53 44 40 35 31 27 24 21 18 16 14 12 10 8 8 4 1 359 360 359 358 358 356 353 347 339 332 324 322 317 310 310 310 308 305 304 303 300 298 296 295 295 294 295 298 297 297 295 293 290 287 284 282 281 282 283 283 283 286 290 292 293 294 294 295 295 295 296 297 298 299 298 294 290 289 288 288 289 288 286 282 278 272 270 272 277 281 283
44 35 28 22 17 12 9 5 1 357 354 352 349 347 346 347 347 347 346 344 343 343 343 342 338 335 331 325 323 317 310 309 306 303 301 300 301 300 297 296 295 294 294 296 297 296 295 295 293 291 290 289 287 287 289 291 290 289 292 295 296 297 297 297 297 296 297 297 297 297 297 296 292 290 287 285 287 288 287 284 280 274 269 269 273 278 282 281
31 23 15 8 3 358 355 351 348 345 342 339 336 334 333 334 334 333 333 331 330 330 330 329 325 326 326 323 322 314 310 312 307 301 298 297 298 298 298 297 295 295 294 296 296 296 294 293 292 292 292 292 292 292 293 295 295 294 296 296 298 298 298 298 297 297 297 296 296 296 295 293 291 289 287 286 288 287 285 282 277 274 272 273 276 280 280 276
19 12 5 359 353 348 345 342 340 338 336 333 329 329 327 326 325 323 322 322 321 321 322 319 317 320 320 320 319 311 310 312 307 303 301 297 298 298 297 296 296 296 296 296 295 294 294 292 292 292 293 293 294 294 294 295 295 295 297 297 298 298 298 298 298 298 297 296 296 296 295 292 291 290 288 290 289 285 281 279 279 279 279 278 279 278 276 272
12 5 359 353 347 343 341 340 340 340 339 335 331 330 328 326 323 320 318 315 315 315 315 314 314 316 316 317 316 310 311 310 306 306 302 298 298 296 296 296 297 298 297 296 295 294 293 294 293 294 296 295 295 297 296 295 295 297 298 299 299 299 298 299 300 300 298 298 299 299 297 295 295 293 291 291 288 285 283 284 285 286 285 283 280 277 273 269
7 360 354 349 345 343 343 346 348 347 345 340 339 339 333 328 323 317 313 310 309 309 309 308 309 312 315 314 311 309 310 308 306 305 302 301 298 297 297 296 296 298 297 297 296 295 295 294 294 295 297 297 299 300 298 297 298 299 300 300 299 299 299 300 301 301 300 302 302 302 302 301 299 293 289 291 288 288 290 292 293 292 289 284 280 277 272 268
2 356 352 349 353 356 356 357 356 353 348 344 343 341 334 329 322 314 308 305 305 306 308 309 310 313 313 310 309 308 308 307 308 305 303 303 301 300 299 297 296 296 295 295 295 295 295 295 295 296 298 299 300 299 297 298 299 299 301 299 299 301 301 300 301 301 304 306 304 306 309 301 295 289 286 289 290 294 297 298 297 292 287 282 278 274 270 267
356 353 351 350 359 6 4 358 354 350 344 341 339 337 333 329 324 319 316 315 312 312 314 316 317 317 314 311 309 308 308 309 311 311 311 309 307 305 300 298 298 297 295 294 294 294 295 296 297 297 298 298 299 297 297 298 299 300 302 299 300 303 298 298 303 306 309 309 306 310 311 293 290 290 284 284 290 296 296 294 292 286 282 278 274 271 268 266
348 347 346 344 344 345 345 342 342 341 337 335 334 333 331 329 328 328 331 334 332 331 329 328 326 325 321 317 315 315 315 318 321 322 321 319 315 310 305 302 301 301 299 296 296 296 297 298 298 298 299 298 298 297 298 299 300 301 303 299 299 302 300 303 310 313 313 311 308 311 308 284 284 287 283 285 289 291 290 288 285 280 277 275 273 272 269 268
339 336 335 335 332 329 329 329 330 331 331 330 330 330 332 336 338 337 341 345 345 344 340 338 339 336 329 326 328 327 326 325 326 325 324 321 315 310 306 303 303 302 300 300 300 300 301 301 301 302 300 299 298 299 301 302 303 304 305 300 301 306 308 312 319 317 312 310 307 307 301 286 286 288 287 289 290 290 288 284 281 278 277 276 275 275 273 271
327 322 321 324 329 328 325 324 326 328 330 329 329 333 339 345 350 355 357 354 351 348 344 343 342 338 333 335 334 330 329 327 326 325 322 319 315 311 308 306 305 304 303 304 304 304 305 305 305 304 302 302 301 304 308 309 311 310 310 309 309 312 314 319 322 317 313 310 306 304 298 291 291 294 296 296 295 293 290 286 284 282 282 281 280 279 277 274
331 332 332 333 335 333 331 332 332 332 334 333 336 342 346 350 359 5 2 359 360 357 352 350 347 348 343 337 337 339 340 338 337 333 327 323 319 314 313 311 310 308 308 307 308 309 307 306 306 305 304 304 304 310 314 312 313 314 315 316 316 316 319 324 322 316 315 312 309 307 300 296 298 300 301 300 298 294 291 290 290 290 290 288 286 282 278 274
4 14 13 7 0 357 355 352 347 344 345 345 346 349 351 353 357 359 359 3 6 6 13 12 11 20 6 350 353 354 348 343 340 335 328 324 320 318 316 314 313 312 312 312 312 311 310 311 310 310 312 312 314 318 317 313 314 317 317 316 316 316 320 324 320 317 321 321 319 315 307 304 303 302 301 299 297 295 295 296 297 297 297 294 289 284 276 270
26 30 30 29 25 20 13 8 3 357 354 354 352 354 355 350 349 354 359 2 4 16 30 26 23 24 10 3 359 350 343 338 334 330 327 325 323 323 318 316 318 317 316 315 315 316 315 316 318 324 328 326 326 324 322 321 320 322 322 321 323 322 324 327 325 327 331 328 322 317 312 307 304 303 302 300 299 301 303 306 307 306 303 298 290 282 274 267
33 34 35 36 34 29 25 22 19 12 8 2 357 356 354 349 349 353 356 1 14 30 33 26 19 12 2 357 349 341 339 336 336 336 335 334 331 329 325 323 322 319 317 315 320 323 319 323 337 343 338 332 330 328 329 331 331 333 332 331 335 333 331 330 328 329 330 327 322 318 314 308 306 305 303 305 307 310 313 314 314 310 305 297 287 278 269 262
39 39 39 39 40 40 39 35 31 27 24 17 9 359 353 353 353 352 355 12 34 35 27 19 10 4 356 347 342 341 341 339 343 341 336 334 332 330 328 325 323 324 324 323 330 333 334 358 7 351 341 336 333 334 341 346 344 343 339 339 343 338 333 329 327 329 331 329 322 319 314 307 304 305 308 314 318 319 320 318 316 310 304 295 284 274 265 257
39 40 40 39 41 40 38 35 31 29 26 20 14 8 3 360 355 358 10 44 52 33 22 13 3 359 353 346 346 348 347 346 347 342 337 336 334 333 331 330 334 338 338 338 347 8 14 13 2 346 342 343 341 345 352 353 350 346 345 347 342 337 337 333 326 326 329 326 322 321 312 303 304 310 318 324 323 322 321 319 315 309 301 291 279 269 261 252
34 35 34 29 26 21 20 22 22 23 22 17 14 12 11 7 5 13 33 84 52 29 17 8 0 358 356 355 355 351 350 354 353 350 351 351 348 348 347 349 355 357 360 359 10 29 20 6 355 353 358 1 357 350 348 352 354 349 347 347 340 336 336 329 323 324 328 326 327 332 310 290 307 323 325 325 324 325 323 320 314 305 293 281 269 259 253 246
25 27 24 17 10 4 360 2 6 11 12 12 10 8 9 11 11 16 46 122 43 21 12 5 2 3 3 1 358 356 356 358 360 2 4 6 8 9 10 11 11 16 23 23 22 16 11 9 14 21 18 10 358 348 349 353 355 353 348 344 338 332 330 327 326 330 334 326 328 335 317 258 312 321 322 325 326 328 325 320 311 299 284 271 261 251 244 238
14 17 13 7 2 357 351 350 352 357 1 5 5 3 5 6 6 16 73 131 31 12 6 3 5 6 5 6 4 6 9 4 7 13 10 12 17 18 19 17 17 28 34 26 12 10 21 37 45 31 15 3 353 354 0 359 1 1 345 338 333 332 333 333 334 337 337 326 331 341 336 287 306 312 322 326 325 327 325 318 308 292 278 263 254 245 239 236
6 8 6 360 357 357 355 354 349 348 354 357 358 358 358 358 3 14 85 137 12 5 5 6 10 8 7 11 11 13 20 11 9 11 10 13 15 16 18 18 22 33 25 17 20 38 51 55 38 17 9 5 7 11 6 0 1 351 337 337 337 338 338 335 338 341 340 340 352 11 3 313 292 310 323 324 326 327 321 314 304 286 272 257 248 242 237 237
4 3 358 352 354 359 2 4 357 350 351 351 352 353 350 353 1 9 110 137 2 1 6 9 14 12 9 10 10 16 22 12 4 6 10 15 15 13 16 23 32 33 20 20 44 68 67 47 22 12 15 21 21 13 358 354 354 347 344 346 344 342 343 344 354 357 354 8 29 18 9 331 300 322 324 329 333 327 320 312 298 281 268 254 247 243 240 242
3 356 348 346 351 356 2 3 355 350 349 348 349 347 347 354 0 37 113 101 0 5 10 13 20 20 12 8 8 14 14 7 7 9 6 9 14 12 19 33 37 31 23 24 48 72 65 33 16 17 28 26 16 1 354 356 357 356 354 352 348 351 360 11 19 7 1 52 48 12 16 357 329 347 340 339 333 323 320 307 292 279 266 256 249 247 246 246
357 347 342 343 345 349 354 354 350 350 348 347 347 345 352 2 6 77 102 13 4 13 14 16 22 24 18 9 8 12 11 11 15 13 7 9 12 10 25 38 35 38 34 31 43 62 58 27 16 26 29 16 7 3 4 6 7 4 358 357 359 1 11 26 19 10 7 70 36 6 3 347 329 15 351 336 321 316 316 301 286 275 264 258 252 250 248 248
345 334 333 338 342 344 347 347 347 347 345 345 347 349 360 21 35 80 82 5 13 18 19 21 18 17 14 10 11 13 9 10 14 13 12 13 8 7 28 31 27 39 37 36 44 56 53 27 23 27 16 7 11 14 15 16 14 6 1 7 9 359 9 22 11 17 14 3 12 342 336 327 307 332 331 326 320 316 309 297 284 271 262 258 254 252 250 251
321 320 326 334 339 340 342 344 343 343 345 346 351 1 25 56 49 60 52 15 12 9 18 22 16 15 12 10 13 14 9 9 10 8 11 13 8 15 27 27 27 29 22 27 37 47 57 35 26 19 6 8 15 20 22 17 10 8 9 14 15 1 10 6 0 8 335 330 328 325 327 322 300 313 317 322 322 317 309 297 285 271 264 259 255 254 253 256
313 317 324 334 338 338 341 341 340 343 347 353 5 20 67 85 57 52 46 40 26 10 15 18 14 14 11 11 14 14 13 14 14 13 13 13 14 23 32 31 32 34 25 26 31 34 47 32 20 13 7 8 13 24 27 17 10 15 19 20 21 14 3 355 356 339 316 308 311 322 327 325 318 313 316 322 319 317 315 304 293 281 271 263 258 256 258 263
330 327 330 339 338 338 341 338 342 349 354 12 28 42 84 87 78 70 53 46 35 21 18 18 17 12 9 14 18 16 17 19 18 16 12 12 16 23 27 29 32 35 36 35 31 33 44 23 11 9 8 6 15 28 25 18 18 19 22 29 38 44 20 342 343 327 311 308 311 323 345 333 315 307 316 320 317 321 320 310 301 288 274 266 261 261 267 277
347 339 340 340 338 341 343 344 353 0 12 34 49 77 93 91 87 78 53 43 36 26 21 22 20 18 16 19 20 17 20 22 17 13 12 16 21 22 23 27 30 32 37 38 32 37 60 50 12 4 3 6 21 26 16 18 21 13 19 26 27 34 16 319 312 308 304 303 305 3 6 321 314 311 316 321 322 325 320 311 304 291 278 269 266 273 283 293
352 351 346 341 345 348 351 5 14 23 41 50 68 83 88 89 82 71 51 39 35 27 26 28 18 20 23 22 21 20 21 22 17 15 17 20 25 24 23 29 31 32 37 39 36 38 61 60 19 5 0 4 20 19 12 19 22 15 22 21 9 12 10 336 306 301 310 299 287 353 332 319 321 317 316 325 329 329 328 326 318 303 290 282 281 287 291 297
1 353 348 350 360 6 19 34 36 50 57 48 80 85 85 86 73 64 51 38 32 26 28 31 21 19 21 19 21 21 20 21 19 20 22 22 24 23 25 34 35 33 34 35 37 39 58 67 18 10 2 4 16 8 5 16 21 24 27 13 3 11 9 358 326 306 325 302 294 320 321 317 317 308 313 328 332 335 342 343 332 316 305 298 296 296 296 298
359 353 359 10 26 38 48 53 50 59 57 48 83 86 83 78 67 58 48 37 32 27 27 31 26 20 21 20 18 17 18 21 20 22 25 24 23 22 26 34 35 34 33 32 40 48 56 66 10 9 14 20 18 4 5 12 15 21 19 8 15 44 335 346 336 310 327 313 302 312 317 309 292 287 315 326 327 333 340 341 331 322 313 307 304 302 301 300
1 11 25 40 54 57 59 61 51 49 53 68 82 84 78 71 64 54 46 37 30 29 28 30 26 20 22 22 18 15 17 21 20 23 28 27 27 27 28 34 35 33 32 32 42 52 48 45 10 9 22 40 360 6 12 8 4 9 10 12 25 37 346 342 342 304 308 310 304 306 314 303 276 297 313 319 323 329 334 333 326 321 314 308 305 303 303 302
29 47 59 63 69 66 57 57 51 43 66 75 78 81 75 68 60 49 44 35 30 30 28 27 25 22 22 20 17 16 18 22 20 24 32 32 34 36 33 36 36 33 32 33 40 46 38 30 14 11 26 37 5 5 6 356 356 3 5 11 22 27 13 349 313 250 285 308 307 304 308 293 293 306 308 315 327 329 329 327 322 318 314 310 308 307 307 307
65 74 75 69 70 66 56 56 57 58 69 73 75 74 69 62 54 46 40 33 30 29 27 24 22 21 21 18 17 16 18 22 20 24 33 35 41 46 38 37 37 35 36 35 37 39 31 22 14 16 27 29 3 351 346 341 351 358 1 8 17 22 20 1 303 230 257 288 291 290 293 291 298 304 304 312 324 324 322 321 318 317 315 313 311 310 310 309
84 81 77 70 66 67 60 59 63 61 66 71 69 66 62 54 49 43 36 33 31 27 26 24 21 20 19 17 15 14 17 21 18 22 33 40 48 51 42 39 40 37 35 35 33 28 22 20 18 21 17 5 328 327 336 335 343 350 355 3 10 15 16 4 316 296 291 283 282 281 277 281 292 300 302 306 312 315 316 317 316 315 313 311 311 311 311 310
85 78 75 70 67 67 61 60 63 60 63 67 63 60 56 49 47 42 35 34 31 28 26 22 20 20 17 15 14 13 18 21 16 21 35 49 54 52 46 42 41 37 35 35 29 22 18 17 17 18 357 347 313 308 325 330 334 340 345 352 359 6 1 350 310 290 287 273 280 288 270 271 291 302 305 307 311 315 317 315 313 311 310 311 313 313 313 312
80 78 75 67 64 63 54 57 61 58 60 63 60 58 53 48 45 40 36 34 30 28 25 20 20 19 15 14 13 14 18 22 18 23 38 56 58 52 46 43 42 38 34 32 30 29 24 17 15 15 353 336 304 304 319 322 326 331 335 341 345 346 349 347 327 291 279 257 257 279 275 284 299 304 308 313 317 318 316 313 310 310 311 314 316 316 315 314
77 80 77 70 64 57 53 59 57 51 56 59 59 57 52 47 44 38 34 32 29 26 23 20 19 15 13 12 10 14 16 18 23 31 42 57 65 55 45 42 41 36 32 31 31 30 26 19 16 18 13 340 316 311 315 315 318 323 325 327 328 331 339 341 334 301 279 269 256 262 281 293 303 307 312 316 317 316 314 312 312 312 315 317 317 316 316 317
78 79 77 72 66 53 53 60 54 48 52 54 55 55 50 45 42 36 32 29 26 24 21 20 17 13 12 9 8 12 11 12 24 35 44 58 62 53 43 39 36 31 29 29 26 26 25 17 10 5 345 312 308 311 313 314 313 314 315 311 308 317 328 335 332 298 290 295 278 267 282 297 306 313 314 314 315 315 314 315 316 317 317 317 316 316 317 319
78 74 70 70 67 53 52 58 55 49 50 50 54 55 49 44 40 34 31 27 24 22 18 16 14 11 10 8 7 9 6 8 19 29 44 54 51 48 39 33 33 28 26 26 22 21 19 13 7 357 332 310 314 318 318 320 316 309 305 299 294 304 317 326 324 304 301 298 284 289 299 301 308 315 314 314 316 316 316 317 318 318 316 315 316 317 319 320
75 72 67 66 68 60 55 58 55 51 48 48 54 54 47 42 38 33 29 24 21 19 15 12 10 8 8 8 6 7 4 4 10 22 36 44 44 42 31 28 29 25 24 22 17 14 13 9 4 355 338 309 313 321 322 326 322 307 295 287 281 290 307 315 317 313 305 285 288 304 308 306 310 315 315 316 317 315 316 318 318 317 315 315 317 319 320 321
71 72 67 62 64 63 58 57 54 49 47 48 52 52 45 40 35 30 27 23 19 15 12 9 7 5 5 5 4 6 6 4 10 20 28 39 44 36 29 30 25 21 21 16 11 12 9 2 358 356 349 321 316 325 327 328 322 303 288 285 274 281 300 307 313 316 305 288 295 306 308 310 315 315 314 316 316 316 318 318 317 316 317 318 320 320 320 319
69 70 65 56 57 61 58 55 53 46 46 50 50 47 42 36 32 28 24 22 17 13 10 7 5 4 2 1 1 2 5 9 19 25 27 41 47 34 32 31 21 17 16 11 9 10 5 359 356 355 352 342 332 330 329 327 317 293 285 285 274 280 294 300 308 314 307 298 303 308 309 314 316 313 314 317 317 318 318 317 318 319 320 321 321 320 319 317
67 66 63 52 52 60 57 52 51 46 46 51 47 43 39 33 29 26 22 20 17 12 9 6 4 2 359 358 357 358 3 9 20 28 27 26 30 30 28 23 17 12 9 8 7 5 2 360 356 353 351 348 340 331 330 329 314 284 290 295 282 283 291 298 306 310 308 306 309 310 311 313 314 314 318 320 319 319 318 319 320 322 322 321 320 319 319 319
63 61 60 50 49 61 58 50 50 47 46 48 44 38 35 29 26 23 20 18 15 11 8 5 2 0 357 355 354 355 359 4 10 19 19 12 3 5 10 12 11 5 4 6 4 1 1 358 355 352 345 341 340 336 333 330 307 285 312 313 298 291 294 298 302 307 308 307 309 312 313 315 317 319 321 320 319 319 319 320 321 322 322 320 319 320 320 321